| time (UTC) | temp C | wind direction | speed KPH | gust KPH | rain 1hr cm | rain 24hr cm | rain mn cm | humidity % | barometer mb |
| 20260507165927 | 16 | 338 | 3.2 | 11.3 | 0.00 | 0.56 | 0.00 | 56 | 1023.7 |
| 20260507165417 | 15 | 225 | 8.0 | 11.3 | 0.00 | 0.56 | 0.00 | 59 | 1023.8 |
| 20260507164908 | 15 | 293 | 6.4 | 11.3 | 0.00 | 0.56 | 0.00 | 57 | 1023.9 |
| 20260507164400 | 15 | 248 | 4.8 | 11.3 | 0.00 | 0.56 | 0.00 | 58 | 1023.7 |
| 20260507163846 | 15 | 293 | 1.6 | 11.3 | 0.00 | 0.56 | 0.00 | 58 | 1023.8 |
| 20260507163336 | 15 | 180 | 6.4 | 11.3 | 0.00 | 0.56 | 0.00 | 59 | 1023.9 |
| 20260507162827 | 14 | 158 | 1.6 | 17.7 | 0.00 | 0.56 | 0.00 | 60 | 1023.7 |
| 20260507162316 | 14 | 248 | 4.8 | 17.7 | 0.00 | 0.56 | 0.00 | 60 | 1023.9 |
| 20260507161811 | 15 | 203 | 6.4 | 12.9 | 0.00 | 0.56 | 0.00 | 58 | 1024.3 |
| 20260507161256 | 16 | 293 | 3.2 | 11.3 | 0.00 | 0.56 | 0.00 | 55 | 1024.1 |
| 20260507160747 | 16 | 45 | 3.2 | 6.4 | 0.00 | 0.56 | 0.00 | 57 | 1024.2 |
| 20260507155726 | 15 | 90 | 0.0 | 6.4 | 0.00 | 0.56 | 0.00 | 59 | 1024.0 |
| 20260507155220 | 15 | 225 | 0.0 | 9.7 | 0.00 | 0.56 | 0.00 | 61 | 1024.0 |
| 20260507154705 | 13 | 315 | 1.6 | 9.7 | 0.00 | 0.56 | 0.00 | 64 | 1023.9 |
| 20260507154155 | 14 | 338 | 6.4 | 9.7 | 0.00 | 0.56 | 0.00 | 64 | 1024.1 |
| 20260507153135 | 12 | 225 | 6.4 | 9.7 | 0.00 | 0.56 | 0.00 | 68 | 1024.4 |
| 20260507152629 | 13 | 270 | 1.6 | 11.3 | 0.00 | 0.56 | 0.00 | 69 | 1024.3 |
| 20260507152114 | 12 | 225 | 6.4 | 11.3 | 0.00 | 0.56 | 0.00 | 69 | 1024.2 |
| 20260507151054 | 12 | 248 | 3.2 | 6.4 | 0.00 | 0.56 | 0.00 | 70 | 1024.2 |
| 20260507150545 | 12 | 248 | 3.2 | 6.4 | 0.00 | 0.56 | 0.00 | 71 | 1024.3 |
| 20260507150039 | 12 | 180 | 3.2 | 11.3 | 0.00 | 0.56 | 0.00 | 71 | 1024.4 |
| 20260507145524 | 12 | 180 | 4.8 | 11.3 | 0.00 | 0.56 | 0.00 | 73 | 1024.5 |
| 20260507145014 | 12 | 135 | 3.2 | 6.4 | 0.00 | 0.56 | 0.00 | 74 | 1024.6 |
| 20260507144505 | 12 | 225 | 3.2 | 6.4 | 0.00 | 0.56 | 0.00 | 76 | 1024.5 |
| 20260507143953 | 11 | 203 | 3.2 | 6.4 | 0.00 | 0.56 | 0.00 | 76 | 1024.5 |
| 20260507143448 | 11 | 135 | 6.4 | 11.3 | 0.00 | 0.56 | 0.00 | 77 | 1024.6 |
| 20260507142934 | 11 | 225 | 6.4 | 14.5 | 0.00 | 0.56 | 0.00 | 77 | 1024.6 |
| 20260507142423 | 11 | 180 | 8.0 | 14.5 | 0.00 | 0.56 | 0.00 | 76 | 1024.8 |
| 20260507141913 | 12 | 248 | 3.2 | 11.3 | 0.00 | 0.56 | 0.00 | 74 | 1024.6 |
| 20260507141403 | 12 | 248 | 4.8 | 6.4 | 0.00 | 0.56 | 0.00 | 70 | 1024.5 |
| 20260507140343 | 12 | 158 | 1.6 | 6.4 | 0.00 | 0.56 | 0.00 | 70 | 1024.4 |
| 20260507135833 | 12 | 158 | 3.2 | 6.4 | 0.00 | 0.56 | 0.00 | 72 | 1024.3 |
| 20260507135323 | 12 | 158 | 4.8 | 6.4 | 0.00 | 0.56 | 0.00 | 74 | 1024.6 |
| 20260507134812 | 12 | 90 | 3.2 | 6.4 | 0.00 | 0.56 | 0.00 | 75 | 1024.4 |
| 20260507133753 | 12 | 90 | 4.8 | 6.4 | 0.00 | 0.56 | 0.00 | 76 | 1024.4 |
| 20260507132733 | 12 | 158 | 3.2 | 6.4 | 0.00 | 0.56 | 0.00 | 78 | 1024.3 |
| 20260507132222 | 12 | 68 | 1.6 | 6.4 | 0.00 | 0.56 | 0.00 | 80 | 1024.6 |
| 20260507131717 | 12 | 248 | 0.0 | 6.4 | 0.00 | 0.56 | 0.00 | 81 | 1024.2 |
| 20260507131202 | 11 | 113 | 3.2 | 6.4 | 0.00 | 0.56 | 0.00 | 81 | 1024.4 |
| 20260507130652 | 11 | 180 | 1.6 | 6.4 | 0.00 | 0.56 | 0.00 | 83 | 1024.3 |
| 20260507130141 | 11 | 158 | 3.2 | 6.4 | 0.00 | 0.56 | 0.00 | 83 | 1024.4 |
| 20260507124611 | 10 | 180 | 1.6 | 6.4 | 0.00 | 0.56 | 0.00 | 85 | 1024.1 |
| 20260507124101 | 10 | 158 | 3.2 | 6.4 | 0.00 | 0.56 | 0.00 | 85 | 1024.1 |
| 20260507123551 | 10 | 135 | 3.2 | 6.4 | 0.00 | 0.56 | 0.00 | 85 | 1024.1 |
| 20260507123041 | 10 | 135 | 4.8 | 6.4 | 0.00 | 0.56 | 0.00 | 85 | 1024.2 |
| 20260507122021 | 10 | 203 | 4.8 | 9.7 | 0.00 | 0.56 | 0.00 | 86 | 1023.8 |
| 20260507121000 | 10 | 158 | 4.8 | 6.4 | 0.00 | 0.56 | 0.00 | 86 | 1023.9 |
| 20260507120451 | 10 | 203 | 1.6 | 6.4 | 0.00 | 0.56 | 0.00 | 86 | 1023.7 |
| 20260507115945 | 9 | 135 | 6.4 | 9.7 | 0.00 | 0.56 | 0.00 | 86 | 1023.7 |
| 20260507115431 | 9 | 158 | 4.8 | 9.7 | 0.00 | 0.56 | 0.00 | 86 | 1023.7 |
| 20260507114920 | 10 | 135 | 3.2 | 11.3 | 0.00 | 0.56 | 0.00 | 86 | 1023.3 |
| 20260507114410 | 9 | 180 | 6.4 | 11.3 | 0.00 | 0.56 | 0.00 | 86 | 1023.4 |
| 20260507113900 | 9 | 225 | 6.4 | 9.7 | 0.00 | 0.56 | 0.00 | 87 | 1023.6 |
| 20260507113355 | 10 | 180 | 6.4 | 9.7 | 0.00 | 0.56 | 0.00 | 87 | 1023.6 |
| 20260507112330 | 10 | 203 | 3.2 | 6.4 | 0.00 | 0.56 | 0.00 | 87 | 1023.6 |
| 20260507111819 | 10 | 225 | 3.2 | 6.4 | 0.00 | 0.56 | 0.00 | 87 | 1023.8 |
| 20260507111310 | 10 | 180 | 3.2 | 6.4 | 0.00 | 0.56 | 0.00 | 87 | 1023.6 |
| 20260507110804 | 10 | 135 | 3.2 | 6.4 | 0.00 | 0.56 | 0.00 | 87 | 1023.6 |
| 20260507110249 | 10 | 158 | 4.8 | 6.4 | 0.00 | 0.56 | 0.00 | 87 | 1023.4 |
| 20260507105229 | 10 | 158 | 3.2 | 6.4 | 0.00 | 0.56 | 0.00 | 87 | 1023.3 |
| 20260507104719 | 9 | 158 | 4.8 | 6.4 | 0.00 | 0.56 | 0.00 | 87 | 1023.0 |
| 20260507104213 | 9 | 180 | 4.8 | 6.4 | 0.00 | 0.56 | 0.00 | 87 | 1023.1 |
| 20260507103659 | 9 | 203 | 6.4 | 6.4 | 0.00 | 0.56 | 0.00 | 87 | 1023.1 |
| 20260507103148 | 10 | 158 | 3.2 | 6.4 | 0.00 | 0.56 | 0.00 | 87 | 1022.9 |
| 20260507101622 | 10 | 225 | 0.0 | 3.2 | 0.00 | 0.56 | 0.00 | 87 | 1022.8 |
| 20260507101108 | 10 | 225 | 0.0 | 3.2 | 0.00 | 0.56 | 0.00 | 87 | 1022.5 |
| 20260507100558 | 10 | 180 | 1.6 | 3.2 | 0.00 | 0.56 | 0.00 | 88 | 1022.6 |
| 20260507095538 | 9 | 158 | 3.2 | 6.4 | 0.00 | 0.56 | 0.00 | 88 | 1022.5 |
| 20260507095033 | 9 | 180 | 3.2 | 6.4 | 0.00 | 0.56 | 0.00 | 88 | 1022.5 |
| 20260507094517 | 9 | 248 | 0.0 | 3.2 | 0.00 | 0.56 | 0.00 | 88 | 1022.5 |
| 20260507093457 | 9 | 248 | 3.2 | 6.4 | 0.00 | 0.56 | 0.00 | 88 | 1022.6 |
| 20260507092946 | 9 | 270 | 1.6 | 3.2 | 0.00 | 0.56 | 0.00 | 88 | 1022.4 |
| 20260507092442 | 9 | 203 | 1.6 | 3.2 | 0.00 | 0.56 | 0.00 | 88 | 1022.5 |
| 20260507091927 | 9 | 203 | 3.2 | 3.2 | 0.00 | 0.56 | 0.00 | 88 | 1022.4 |
| 20260507091417 | 9 | 203 | 0.0 | 3.2 | 0.00 | 0.56 | 0.00 | 88 | 1022.0 |
| 20260507090907 | 9 | 135 | 1.6 | 3.2 | 0.00 | 0.56 | 0.00 | 88 | 1022.3 |
| 20260507090357 | 9 | 180 | 1.6 | 3.2 | 0.00 | 0.56 | 0.00 | 88 | 1022.3 |
| 20260507085851 | 9 | 180 | 1.6 | 3.2 | 0.00 | 0.56 | 0.00 | 88 | 1022.1 |
| 20260507085336 | 9 | 158 | 3.2 | 6.4 | 0.00 | 0.56 | 0.00 | 88 | 1022.2 |
| 20260507084826 | 9 | 203 | 3.2 | 6.4 | 0.00 | 0.56 | 0.00 | 88 | 1022.1 |
| 20260507084318 | 9 | 158 | 4.8 | 6.4 | 0.00 | 0.56 | 0.00 | 88 | 1022.1 |
| 20260507083805 | 9 | 135 | 1.6 | 6.4 | 0.00 | 0.56 | 0.00 | 88 | 1022.0 |
| 20260507082745 | 9 | 225 | 4.8 | 6.4 | 0.00 | 0.56 | 0.00 | 88 | 1022.1 |
| 20260507082236 | 9 | 248 | 6.4 | 9.7 | 0.00 | 0.56 | 0.00 | 88 | 1022.1 |
| 20260507081215 | 9 | 225 | 3.2 | 9.7 | 0.00 | 0.56 | 0.00 | 87 | 1021.9 |
| 20260507080709 | 9 | 270 | 6.4 | 9.7 | 0.00 | 0.56 | 0.00 | 87 | 1022.0 |
| 20260507075644 | 9 | 248 | 3.2 | 9.7 | 0.00 | 0.56 | 0.00 | 87 | 1021.9 |
| 20260507075135 | 9 | 248 | 6.4 | 9.7 | 0.00 | 0.56 | 0.00 | 87 | 1021.9 |
| 20260507074626 | 9 | 270 | 3.2 | 9.7 | 0.00 | 0.56 | 0.00 | 87 | 1021.9 |
| 20260507074119 | 9 | 225 | 4.8 | 9.7 | 0.00 | 0.56 | 0.00 | 86 | 1022.0 |
| 20260507073605 | 9 | 248 | 4.8 | 11.3 | 0.00 | 0.56 | 0.00 | 86 | 1022.0 |
| 20260507073054 | 9 | 248 | 4.8 | 11.3 | 0.00 | 0.56 | 0.00 | 86 | 1021.8 |
| 20260507072545 | 9 | 248 | 3.2 | 9.7 | 0.00 | 0.56 | 0.00 | 86 | 1021.8 |
| 20260507072033 | 9 | 225 | 4.8 | 6.4 | 0.00 | 0.56 | 0.00 | 86 | 1021.8 |
| 20260507071528 | 10 | 248 | 1.6 | 3.2 | 0.00 | 0.56 | 0.00 | 86 | 1022.0 |
| 20260507071014 | 10 | 270 | 3.2 | 3.2 | 0.00 | 0.56 | 0.00 | 86 | 1021.8 |
| 20260507070505 | 9 | 270 | 3.2 | 6.4 | 0.00 | 0.56 | 0.00 | 86 | 1022.1 |
| 20260507065954 | 10 | 248 | 3.2 | 6.4 | 0.00 | 0.56 | 0.00 | 86 | 1021.8 |
| 20260507065444 | 10 | 158 | 3.2 | 6.4 | 0.00 | 0.56 | 0.00 | 86 | 1021.5 |
| 20260507064939 | 10 | 225 | 3.2 | 6.4 | 0.00 | 0.56 | 0.00 | 86 | 1021.9 |
| 20260507064423 | 10 | 180 | 3.2 | 6.4 | 0.00 | 0.56 | 0.00 | 87 | 1022.0 |
| 20260507063915 | 10 | 225 | 1.6 | 6.4 | 0.00 | 0.56 | 0.00 | 87 | 1022.0 |
| 20260507063403 | 10 | 158 | 3.2 | 6.4 | 0.00 | 0.56 | 0.00 | 87 | 1021.8 |
| 20260507062856 | 10 | 248 | 3.2 | 6.4 | 0.00 | 0.56 | 0.00 | 87 | 1021.8 |
| 20260507062347 | 10 | 180 | 4.8 | 6.4 | 0.00 | 0.56 | 0.00 | 87 | 1021.8 |
| 20260507061833 | 10 | 180 | 3.2 | 6.4 | 0.00 | 0.56 | 0.00 | 87 | 1021.9 |
| 20260507061322 | 10 | 203 | 3.2 | 6.4 | 0.00 | 0.56 | 0.00 | 87 | 1021.9 |
| 20260507060812 | 10 | 180 | 3.2 | 6.4 | 0.00 | 0.56 | 0.00 | 87 | 1021.5 |
| 20260507060303 | 9 | 203 | 1.6 | 9.7 | 0.00 | 0.56 | 0.00 | 87 | 1021.8 |
| 20260507055242 | 9 | 158 | 1.6 | 9.7 | 0.00 | 0.56 | 0.00 | 87 | 1021.4 |
| 20260507054732 | 9 | 180 | 3.2 | 11.3 | 0.00 | 0.56 | 0.00 | 87 | 1021.9 |
| 20260507054222 | 9 | 270 | 3.2 | 11.3 | 0.00 | 0.56 | 0.00 | 88 | 1021.8 |
| 20260507053713 | 9 | 180 | 3.2 | 12.9 | 0.00 | 0.56 | 0.00 | 87 | 1022.0 |
| 20260507053207 | 9 | 180 | 6.4 | 12.9 | 0.00 | 0.56 | 0.00 | 88 | 1021.6 |
| 20260507052651 | 9 | 203 | 8.0 | 12.9 | 0.00 | 0.56 | 0.00 | 87 | 1021.8 |
| 20260507052141 | 9 | 180 | 6.4 | 12.9 | 0.00 | 0.56 | 0.00 | 87 | 1021.4 |
| 20260507051632 | 9 | 248 | 6.4 | 12.9 | 0.00 | 0.56 | 0.00 | 87 | 1021.4 |
| 20260507051122 | 10 | 248 | 6.4 | 9.7 | 0.00 | 0.56 | 0.00 | 87 | 1021.2 |
| 20260507050616 | 10 | 270 | 3.2 | 9.7 | 0.00 | 0.56 | 0.00 | 87 | 1021.4 |
| 20260507045551 | 10 | 248 | 0.0 | 11.3 | 0.00 | 0.56 | 0.00 | 87 | 1021.5 |
| 20260507045042 | 10 | 225 | 0.0 | 11.3 | 0.00 | 0.56 | 0.00 | 87 | 1021.6 |
| 20260507044530 | 10 | 248 | 3.2 | 11.3 | 0.00 | 0.56 | 0.00 | 87 | 1021.5 |
| 20260507044025 | 10 | 225 | 3.2 | 11.3 | 0.00 | 0.56 | 0.00 | 87 | 1021.5 |
| 20260507043511 | 10 | 270 | 6.4 | 11.3 | 0.00 | 0.56 | 0.00 | 87 | 1021.4 |
| 20260507043000 | 10 | 270 | 4.8 | 6.4 | 0.00 | 0.56 | 0.00 | 87 | 1021.8 |
| 20260507041434 | 10 | 270 | 1.6 | 6.4 | 0.00 | 0.56 | 0.00 | 87 | 1021.6 |
| 20260507040920 | 10 | 270 | 1.6 | 6.4 | 0.00 | 0.56 | 0.00 | 87 | 1021.2 |
| 20260507040410 | 10 | 225 | 3.2 | 6.4 | 0.00 | 0.56 | 0.00 | 87 | 1021.5 |
| 20260507035900 | 10 | 225 | 1.6 | 9.7 | 0.00 | 0.56 | 0.71 | 87 | 1021.3 |
| 20260507035350 | 10 | 225 | 3.2 | 9.7 | 0.00 | 0.56 | 0.71 | 87 | 1021.5 |
| 20260507034844 | 10 | 270 | 6.4 | 9.7 | 0.00 | 0.56 | 0.71 | 87 | 1021.3 |
| 20260507033819 | 10 | 248 | 3.2 | 3.2 | 0.00 | 0.56 | 0.71 | 87 | 1021.4 |
| 20260507033309 | 10 | 293 | 1.6 | 3.2 | 0.00 | 0.56 | 0.71 | 87 | 1021.3 |
| 20260507032254 | 10 | 135 | 3.2 | 6.4 | 0.00 | 0.56 | 0.71 | 87 | 1021.1 |
| 20260507031229 | 10 | 248 | 3.2 | 6.4 | 0.00 | 0.56 | 0.71 | 87 | 1021.1 |
| 20260507030208 | 10 | 180 | 0.0 | 6.4 | 0.00 | 0.56 | 0.71 | 87 | 1021.1 |
| 20260507025703 | 10 | 203 | 0.0 | 6.4 | 0.00 | 0.56 | 0.71 | 87 | 1021.2 |
| 20260507024639 | 10 | 248 | 1.6 | 9.7 | 0.00 | 0.56 | 0.71 | 87 | 1021.0 |
| 20260507024128 | 10 | 248 | 3.2 | 9.7 | 0.00 | 0.56 | 0.71 | 87 | 1021.0 |
| 20260507023618 | 10 | 225 | 3.2 | 9.7 | 0.00 | 0.56 | 0.71 | 87 | 1021.1 |
| 20260507023112 | 10 | 180 | 6.4 | 12.9 | 0.00 | 0.56 | 0.71 | 87 | 1020.9 |
| 20260507022558 | 10 | 203 | 3.2 | 12.9 | 0.00 | 0.56 | 0.71 | 87 | 1020.8 |
| 20260507022048 | 10 | 203 | 6.4 | 11.3 | 0.00 | 0.56 | 0.71 | 88 | 1020.9 |
| 20260507021028 | 10 | 135 | 6.4 | 9.7 | 0.00 | 0.56 | 0.71 | 88 | 1020.7 |
| 20260507020521 | 10 | 113 | 3.2 | 6.4 | 0.00 | 0.56 | 0.71 | 88 | 1020.8 |
| 20260507020007 | 10 | 135 | 3.2 | 6.4 | 0.00 | 0.56 | 0.71 | 88 | 1020.7 |
| 20260507015457 | 10 | 90 | 4.8 | 6.4 | 0.00 | 0.56 | 0.71 | 88 | 1020.6 |
| 20260507014947 | 10 | 315 | 3.2 | 6.4 | 0.00 | 0.56 | 0.71 | 88 | 1020.7 |
| 20260507014437 | 10 | 225 | 1.6 | 9.7 | 0.00 | 0.56 | 0.71 | 88 | 1020.4 |
| 20260507013932 | 10 | 248 | 0.0 | 12.9 | 0.00 | 0.56 | 0.71 | 88 | 1020.5 |
| 20260507012906 | 10 | 225 | 3.2 | 14.5 | 0.00 | 0.56 | 0.71 | 89 | 1020.5 |
| 20260507012357 | 10 | 293 | 8.0 | 14.5 | 0.00 | 0.56 | 0.71 | 89 | 1020.5 |
| 20260507011848 | 10 | 248 | 6.4 | 12.9 | 0.00 | 0.56 | 0.71 | 89 | 1020.4 |
| 20260507011340 | 10 | 248 | 4.8 | 14.5 | 0.00 | 0.56 | 0.71 | 89 | 1020.6 |
| 20260507010827 | 10 | 225 | 4.8 | 14.5 | 0.00 | 0.56 | 0.71 | 89 | 1020.6 |
| 20260507010316 | 10 | 180 | 3.2 | 11.3 | 0.00 | 0.56 | 0.71 | 89 | 1020.4 |
| 20260507005806 | 11 | 158 | 3.2 | 14.5 | 0.00 | 0.56 | 0.71 | 90 | 1020.4 |
| 20260507005255 | 11 | 248 | 4.8 | 14.5 | 0.00 | 0.56 | 0.71 | 89 | 1020.4 |
| 20260507004749 | 11 | 248 | 1.6 | 12.9 | 0.00 | 0.56 | 0.71 | 89 | 1020.5 |
| 20260507004235 | 11 | 248 | 6.4 | 14.5 | 0.00 | 0.56 | 0.71 | 89 | 1020.3 |
| 20260507003725 | 11 | 270 | 9.7 | 17.7 | 0.00 | 0.56 | 0.71 | 90 | 1020.2 |
| 20260507003215 | 11 | 270 | 6.4 | 17.7 | 0.00 | 0.56 | 0.71 | 90 | 1020.0 |
| 20260507002705 | 11 | 158 | 3.2 | 12.9 | 0.00 | 0.56 | 0.71 | 90 | 1020.0 |
| 20260507002159 | 11 | 225 | 6.4 | 12.9 | 0.00 | 0.56 | 0.71 | 90 | 1019.9 |
| 20260507001646 | 11 | 248 | 3.2 | 11.3 | 0.00 | 0.56 | 0.71 | 90 | 1019.7 |
| 20260507000625 | 11 | 270 | 6.4 | 12.9 | 0.00 | 0.56 | 0.71 | 90 | 1020.0 |
| 20260507000115 | 11 | 180 | 6.4 | 12.9 | 0.00 | 0.56 | 0.71 | 90 | 1019.7 |
| 20260506235609 | 11 | 203 | 3.2 | 11.3 | 0.00 | 0.56 | 0.71 | 90 | 1019.9 |
| 20260506235054 | 11 | 225 | 3.2 | 11.3 | 0.00 | 0.56 | 0.71 | 90 | 1019.5 |
| 20260506234544 | 11 | 180 | 1.6 | 12.9 | 0.03 | 0.56 | 0.71 | 90 | 1019.9 |
| 20260506234034 | 11 | 225 | 3.2 | 12.9 | 0.03 | 0.56 | 0.71 | 90 | 1019.3 |
| 20260506233524 | 11 | 113 | 6.4 | 14.5 | 0.03 | 0.56 | 0.71 | 90 | 1019.6 |
| 20260506233019 | 11 | 270 | 4.8 | 20.9 | 0.03 | 0.56 | 0.71 | 90 | 1019.4 |
| 20260506232505 | 11 | 225 | 12.9 | 22.5 | 0.03 | 0.56 | 0.71 | 90 | 1019.4 |
| 20260506231953 | 11 | 248 | 11.3 | 22.5 | 0.03 | 0.56 | 0.71 | 90 | 1019.5 |
| 20260506231444 | 11 | 180 | 6.4 | 20.9 | 0.03 | 0.56 | 0.71 | 90 | 1019.4 |
| 20260506230934 | 11 | 270 | 11.3 | 20.9 | 0.03 | 0.56 | 0.71 | 90 | 1019.2 |
| 20260506230428 | 11 | 248 | 8.0 | 17.7 | 0.03 | 0.56 | 0.71 | 90 | 1019.4 |
| 20260506225913 | 11 | 135 | 9.7 | 17.7 | 0.03 | 0.56 | 0.71 | 90 | 1019.5 |
| 20260506224853 | 11 | 135 | 6.4 | 14.5 | 0.03 | 0.56 | 0.71 | 90 | 1018.9 |
| 20260506224344 | 11 | 135 | 6.4 | 17.7 | 0.00 | 0.53 | 0.69 | 90 | 1019.0 |
| 20260506223838 | 11 | 135 | 6.4 | 17.7 | 0.00 | 0.53 | 0.69 | 90 | 1019.0 |
| 20260506223322 | 11 | 225 | 4.8 | 17.7 | 0.00 | 0.53 | 0.69 | 90 | 1018.9 |
| 20260506222305 | 11 | 180 | 4.8 | 14.5 | 0.03 | 0.53 | 0.69 | 90 | 1018.9 |
| 20260506221753 | 11 | 158 | 6.4 | 17.7 | 0.10 | 0.53 | 0.69 | 90 | 1018.9 |
| 20260506220732 | 11 | 203 | 4.8 | 27.4 | 0.18 | 0.53 | 0.69 | 90 | 1019.0 |
| 20260506220222 | 11 | 158 | 6.4 | 27.4 | 0.18 | 0.53 | 0.69 | 90 | 1018.7 |
| 20260506215712 | 11 | 225 | 8.0 | 25.7 | 0.20 | 0.53 | 0.69 | 90 | 1018.7 |
| 20260506215202 | 12 | 225 | 12.9 | 27.4 | 0.20 | 0.53 | 0.69 | 90 | 1018.5 |
| 20260506214657 | 12 | 270 | 6.4 | 27.4 | 0.28 | 0.53 | 0.69 | 90 | 1018.5 |
| 20260506214141 | 12 | 225 | 14.5 | 27.4 | 0.36 | 0.53 | 0.69 | 89 | 1018.5 |
| 20260506213633 | 12 | 203 | 8.0 | 25.7 | 0.38 | 0.53 | 0.69 | 89 | 1018.4 |
| 20260506213122 | 12 | 23 | 12.9 | 22.5 | 0.43 | 0.53 | 0.69 | 89 | 1018.4 |
| 20260506212614 | 12 | 270 | 9.7 | 24.1 | 0.38 | 0.51 | 0.66 | 89 | 1018.1 |
| 20260506212106 | 12 | 203 | 8.0 | 24.1 | 0.38 | 0.48 | 0.66 | 89 | 1018.2 |
| 20260506211551 | 12 | 225 | 9.7 | 24.1 | 0.28 | 0.36 | 0.51 | 89 | 1018.4 |
| 20260506211041 | 12 | 180 | 9.7 | 25.7 | 0.28 | 0.36 | 0.51 | 89 | 1017.9 |
| 20260506210531 | 13 | 180 | 6.4 | 25.7 | 0.28 | 0.36 | 0.51 | 89 | 1017.8 |
| 20260506210022 | 13 | 203 | 6.4 | 24.1 | 0.23 | 0.33 | 0.48 | 89 | 1017.7 |
| 20260506205515 | 13 | 203 | 6.4 | 22.5 | 0.30 | 0.33 | 0.48 | 88 | 1017.8 |
| 20260506205000 | 13 | 248 | 11.3 | 17.7 | 0.30 | 0.30 | 0.46 | 88 | 1017.7 |
| 20260506204450 | 13 | 248 | 3.2 | 25.7 | 0.20 | 0.20 | 0.36 | 87 | 1017.9 |
| 20260506203940 | 13 | 225 | 9.7 | 27.4 | 0.15 | 0.15 | 0.30 | 87 | 1017.8 |
| 20260506203431 | 13 | 248 | 17.7 | 27.4 | 0.15 | 0.15 | 0.30 | 86 | 1017.8 |
| 20260506202924 | 13 | 225 | 6.4 | 22.5 | 0.13 | 0.13 | 0.28 | 86 | 1017.7 |
| 20260506202410 | 13 | 203 | 12.9 | 22.5 | 0.10 | 0.10 | 0.23 | 85 | 1018.1 |
| 20260506201350 | 13 | 248 | 12.9 | 24.1 | 0.10 | 0.10 | 0.23 | 84 | 1017.9 |
| 20260506200839 | 13 | 225 | 6.4 | 20.9 | 0.10 | 0.10 | 0.23 | 83 | 1017.8 |
| 20260506200334 | 14 | 248 | 11.3 | 20.9 | 0.10 | 0.10 | 0.23 | 82 | 1017.6 |
| 20260506195819 | 14 | 180 | 8.0 | 14.5 | 0.05 | 0.05 | 0.20 | 81 | 1017.6 |
| 20260506195309 | 15 | 225 | 6.4 | 12.9 | 0.00 | 0.00 | 0.15 | 79 | 1017.9 |
| 20260506194759 | 15 | 248 | 4.8 | 17.7 | 0.00 | 0.00 | 0.15 | 78 | 1017.9 |
| 20260506194249 | 15 | 203 | 8.0 | 17.7 | 0.00 | 0.00 | 0.15 | 78 | 1017.9 |
| 20260506193744 | 15 | 158 | 11.3 | 17.7 | 0.00 | 0.00 | 0.15 | 77 | 1017.7 |
| 20260506193228 | 15 | 135 | 8.0 | 14.5 | 0.00 | 0.00 | 0.15 | 76 | 1017.9 |
| 20260506192719 | 15 | 180 | 6.4 | 14.5 | 0.00 | 0.00 | 0.15 | 76 | 1017.7 |
| 20260506192209 | 15 | 158 | 4.8 | 11.3 | 0.00 | 0.00 | 0.15 | 76 | 1017.6 |
| 20260506191658 | 15 | 158 | 8.0 | 11.3 | 0.00 | 0.00 | 0.15 | 77 | 1017.7 |
| 20260506191152 | 15 | 135 | 3.2 | 9.7 | 0.00 | 0.00 | 0.15 | 77 | 1017.8 |
| 20260506190638 | 15 | 113 | 4.8 | 11.3 | 0.00 | 0.00 | 0.15 | 78 | 1017.9 |
| 20260506190128 | 15 | 135 | 4.8 | 11.3 | 0.00 | 0.00 | 0.15 | 79 | 1018.2 |
| 20260506185618 | 15 | 113 | 6.4 | 9.7 | 0.00 | 0.00 | 0.15 | 80 | 1018.2 |
| 20260506185108 | 15 | 90 | 4.8 | 11.3 | 0.00 | 0.00 | 0.15 | 82 | 1017.8 |
| 20260506184603 | 14 | 90 | 4.8 | 11.3 | 0.00 | 0.00 | 0.15 | 83 | 1017.9 |
| 20260506184047 | 14 | 113 | 4.8 | 11.3 | 0.00 | 0.00 | 0.15 | 84 | 1017.6 |
| 20260506183537 | 13 | 90 | 4.8 | 11.3 | 0.00 | 0.00 | 0.15 | 84 | 1017.6 |
| 20260506183027 | 13 | 113 | 4.8 | 11.3 | 0.00 | 0.00 | 0.15 | 84 | 1018.1 |
| 20260506182518 | 13 | 113 | 6.4 | 11.3 | 0.00 | 0.00 | 0.15 | 84 | 1018.1 |
| 20260506182011 | 14 | 90 | 3.2 | 6.4 | 0.00 | 0.00 | 0.15 | 85 | 1018.1 |
| 20260506181457 | 13 | 90 | 0.0 | 6.4 | 0.00 | 0.00 | 0.15 | 85 | 1018.1 |
| 20260506180947 | 13 | 113 | 3.2 | 6.4 | 0.00 | 0.00 | 0.15 | 85 | 1017.9 |
| 20260506175928 | 13 | 135 | 4.8 | 6.4 | 0.00 | 0.00 | 0.15 | 84 | 1017.9 |
| 20260506175428 | 13 | 113 | 3.2 | 6.4 | 0.00 | 0.00 | 0.15 | 85 | 1017.9 |
| 20260506174353 | 13 | 158 | 3.2 | 6.4 | 0.15 | 0.15 | 0.15 | 84 | 1017.9 |
| 20260506173843 | 13 | 158 | 3.2 | 6.4 | 0.13 | 0.13 | 0.13 | 84 | 1017.7 |
| 20260506173336 | 13 | 180 | 3.2 | 9.7 | 0.05 | 0.05 | 0.05 | 84 | 1018.2 |
| 20260506172822 | 13 | 248 | 1.6 | 9.7 | 0.03 | 0.03 | 0.03 | 84 | 1018.3 |
| 20260506171802 | 13 | 113 | 3.2 | 11.3 | 0.03 | 0.03 | 0.03 | 83 | 1018.1 |
| 20260506171252 | 13 | 135 | 6.4 | 11.3 | 0.00 | 0.00 | 0.00 | 82 | 1017.8 |
| 20260506170749 | 13 | 180 | 4.8 | 9.7 | 0.00 | 0.00 | 0.00 | 82 | 1017.9 |